User: anonymous   Login
Location: Unspecified
(0.0000°N, 0.0000°E)
Time: 20:07:53
(UTC+02:00)
Language:

Cosmos 1437 - Orbit

View from above orbital plane
View from above orbital plane
View from above satellite
View from above satellite

Ground track
Ground track

The orbit data is extracted from the following two-line orbital elements,

1 13770U 83003A   16180.18388611  .00003351  00000-0  65739-4 0  9990
2 13770  81.1589 221.7616 0008645  72.2461 287.9727 15.46972879831712
Epoch (UTC): 28 June 2016 04:24:47
Eccentricity: 0.0008645
inclination: 81.1589°
perigee height: 420 km
apogee height: 431 km
right ascension of ascending node: 221.7616°
argument of perigee: 72.2461°
revolutions per day: 15.46972879
mean anomaly at epoch: 287.9727°
orbit number at epoch: 83171

The dashed part of the orbit path shows where the satellite is in the earth's shadow,  

DLR